Lexington Weather

Lexington, Massachusetts, USA

32°F
12/8/2019 4:15pm 
  • Lexington Conditions: Mostly cloudy
  • Temperature: 32.4°F / 0.2°CColder 1.2°F than last hour.
  • Dew Point: 17.6°FIncreased 1.6°Fsince last hour.
  • Relative Humidity: 54%Increased 6.0% since last hour.
  • Wind: Wind from WSW WSW 1 mph, 10-min avg: 3 mph, gust: 8 mph
  • Barometer: 30.40 in Steady
  • Visibility: 10 miles
  • Snow Today: 0.0 in
  •   

Regional Weather Roundup
for Boston / Norton, MA

        
000
ASUS41 KBOX 081510
RWRBOX

REGIONAL WEATHER ROUNDUP
NATIONAL WEATHER SERVICE BOSTON/NORTON MA
1000 AM EST SUN DEC 08 2019

NOTE:  "FAIR" INDICATES FEW OR NO CLOUDS BELOW 12,000 FEET WITH NO 
SIGNIFICANT WEATHER AND/OR OBSTRUCTIONS TO VISIBILITY.

MAZALL-081600-
EASTERN MASSACHUSETTS
  
CITY           SKY/WX    TMP DP  RH WIND       PRES   REMARKS
BOSTON         FAIR      30  12  47 SW5       30.54F WCI  25          
BEVERLY        FAIR      24  14  65 CALM      30.53S                  
LAWRENCE       FAIR      19  13  77 W3        30.54S                  
BEDFORD        FAIR      20  12  71 CALM      30.52F                  
BLUE HILL        N/A     25  12  58 S8        30.48F WCI  16          
NORWOOD        FAIR      28  19  69 CALM      30.53F                  
MARSHFIELD     FAIR      30  14  51 VRB3      30.55S                  
PLYMOUTH       FAIR      27  17  66 SW5       30.55S WCI  22          
TAUNTON        FAIR      28  17  63 CALM      30.55F                  
NEW BEDFORD    FAIR      28  19  69 CALM      30.55F                  
$$

MAZALL-081600-
CAPE COD AND THE ISLANDS
  
CITY           SKY/WX    TMP DP  RH WIND       PRES   REMARKS
FALMOUTH       SUNNY     28  12  50 W5        30.56S WCI  23          
HYANNIS        FAIR      32   9  38 S5        30.54F WCI  27          
CHATHAM        FAIR      33  19  56 CALM      30.56S                  
PROVINCETOWN   FAIR      31  18  58 SW9       30.55F WCI  23          
NANTUCKET      FAIR      33  18  53 S3        30.56F                  
MARTHAS VNYRD  FAIR      32  17  54 VRB6      30.56S WCI  26          
$$
 
MAZALL-081600-
CENTRAL AND WESTERN MASSACHUSETTS
  
CITY           SKY/WX    TMP DP  RH WIND       PRES   REMARKS
WORCESTER      FAIR      22   7  52 S9        30.46S WCI  12          
FITCHBURG      FAIR      15  12  88 CALM      30.51F                  
ORANGE         CLOUDY     8   4  83 CALM      30.51F                  
SPRINGFIELD    MOSUNNY   11   7  85 CALM      30.52F                  
WESTFIELD      FAIR      13   8  81 CALM      30.53F                  
NORTH ADAMS    FAIR      14   8  77 SE5       30.48F WCI   6          
PITTSFIELD     FAIR      13  10  88 CALM      30.43F                  
$$
 
RIZALL-081600-
RHODE ISLAND
  
CITY           SKY/WX    TMP DP  RH WIND       PRES   REMARKS
PROVIDENCE     FAIR      28  16  60 SE6       30.56S WCI  22          
NEWPORT        FAIR      30  19  63 S5        30.54F WCI  25          
BLOCK ISLAND   FAIR      32  20  61 VRB3      30.56S                  
SMITHFIELD     FAIR      27  14  58 VRB3      30.52S                  
WESTERLY       FAIR      32  16  51 CALM      30.56S                  
$$
 
CTZALL-081600-
CONNECTICUT
  
CITY           SKY/WX    TMP DP  RH WIND       PRES   REMARKS
BRADLEY INTL   FAIR      22  11  62 CALM      30.54S                  
HARTFORD       FAIR      23  16  74 CALM      30.56S                  
BRIDGEPORT     FAIR      30  17  58 NE3       30.56S                  
DANBURY        FAIR      25  17  72 CALM      30.53F                  
GROTON         FAIR      30  18  60 CALM      30.55F                  
NEW HAVEN      FAIR      32  18  56 CALM      30.56S                  
CHESTER        FAIR      28  10  47 S6        30.53S WCI  22          
MERIDEN        FAIR      25  17  72 CALM      30.55F                  
WILLIMANTIC    FAIR      19  13  77 CALM      30.55F                  
OXFORD         FAIR      28  22  78 CALM      30.51S                  
$$

MEZ002-015-021-024-NHZ003-005-008-011-012-014-VTZ005-008-081600-
NORTHERN NEW ENGLAND
  
CITY           SKY/WX    TMP DP  RH WIND       PRES   REMARKS
PORTLAND ME    FAIR      22  10  60 W5        30.51F WCI  16          
BANGOR ME      FAIR      18  10  71 S3        30.48F                  
CONCORD NH     FAIR      13   8  81 CALM      30.51S                  
MANCHESTER NH  FAIR      13   7  77 CALM      30.50S                  
NASHUA NH      FAIR      23  18  81 CALM      30.53S                  
PORTSMOUTH NH  MOSUNNY   21  10  60 SW6       30.51R WCI  14          
JAFFREY NH     FAIR      14  10  84 S5        30.44F WCI   6          
KEENE NH       FAIR      15   9  76 CALM      30.52F                  
BURLINGTON VT  PTSUNNY   23  14  68 S23       30.37F WCI   7          
MT. WASHINGTON MOSUNNY   10  -4  52 W31         N/A  WCI -12          
$$

NYZ052-076-081600-
EASTERN NEW YORK
  
CITY           SKY/WX    TMP DP  RH WIND       PRES   REMARKS
ALBANY         FAIR      19  12  74 S8        30.50F WCI   9          
NEW YORK CITY  PTSUNNY   34  16  47 SE8       30.54F WCI  27          
$$
 
ANZALL-081600-
MARINE OBSERVATIONS
  
STATION/POSITION TIME  TEMP    WIND        PRES    VSBY  WAVE
                       AIR SEA DIR/SP/G                  HT/PER
                 (UTC) (F)     (DEG/KT/KT) (MB)    (MI)  (FT/S)
BOSTON BUOY      1450   30 47  230/ 10/ 12 1033.5F         1/ 2
BUZZARDS BAY     1400   32      CALM  /  2 1035.6R
NANTUCKET SOUND  1440      41              1035.2F
MASS BAY-STELLWA 1404   28 46  280/  8/ 10 1032.3S  1 7/8  1/ 3
ISLE OF SHOALS   1400   24     270/  8/  9 1033.2S
S OF BLOCK IS    1500      52                N/A           1/ 6
$$

......................KEY.........................
  SKY/WX - SKY CONDITION/PRESENT WEATHER
  TMP    - TEMPERATURE IN FAHRENHEIT
  DWPT   - DEWPOINT IN FAHRENHEIT
  RH     - RELATIVE HUMIDITY IN PERCENT
  WIND   - DIRECTION AND SPEED IN MPH
  PRES   - MEAN SEA LEVEL PRESSURE IN INCHES OF HG
  WCI    - WIND CHILL INDEX
  VSB    - VISIBILITY IN MILES
  HX     - HEAT INDEX
  TC     - TEMPERATURE IN CELSIUS
  VRB    - VARIABLE WIND DIRECTION
  N/A    - NOT AVAILABLE
  
      

Other recent Regional Weather Roundups

Sun Dec 8, 4:01pm

Sun Dec 8, 3:10pm

Sun Dec 8, 3:01pm

Sun Dec 8, 2:10pm

Sun Dec 8, 2:01pm

Sun Dec 8, 1:10pm

Sun Dec 8, 1:00pm

Sun Dec 8, 12:10pm

Sun Dec 8, 12:01pm

Sun Dec 8, 11:10am

Sun Dec 8, 11:00am

Sun Dec 8, 10:01am

Sun Dec 8, 9:10am

Sun Dec 8, 9:00am

Sun Dec 8, 8:10am

Sun Dec 8, 8:00am

Sun Dec 8, 7:10am

Sun Dec 8, 7:00am

Sun Dec 8, 6:10am

Sun Dec 8, 6:00am

Sun Dec 8, 5:10am

Sun Dec 8, 5:00am

Sun Dec 8, 4:10am

Sun Dec 8, 4:00am

Sun Dec 8, 3:10am

Sun Dec 8, 3:00am

Sun Dec 8, 2:10am

Sun Dec 8, 2:00am

Sun Dec 8, 1:10am

Sun Dec 8, 1:00am

Sun Dec 8, 12:10am

Sun Dec 8, 12:01am

Sat Dec 7, 11:10pm

Sat Dec 7, 11:00pm

Sat Dec 7, 10:10pm

Sat Dec 7, 10:00pm

Sat Dec 7, 9:10pm

Sat Dec 7, 9:00pm

Sat Dec 7, 8:10pm

Sat Dec 7, 8:00pm

Sat Dec 7, 7:10pm

Sat Dec 7, 7:00pm

Sat Dec 7, 6:10pm

Sat Dec 7, 6:00pm

Sat Dec 7, 5:10pm

Sat Dec 7, 5:00pm

Sat Dec 7, 4:10pm

Sat Dec 7, 4:00pm

Sat Dec 7, 3:10pm

Sat Dec 7, 3:00pm

Sat Dec 7, 2:10pm

Sat Dec 7, 2:01pm

Sat Dec 7, 1:10pm

Sat Dec 7, 1:00pm

Sat Dec 7, 12:10pm

Sat Dec 7, 12:01pm

Sat Dec 7, 11:10am

Sat Dec 7, 11:00am

Sat Dec 7, 10:10am

Sat Dec 7, 10:01am

Sat Dec 7, 9:10am

Sat Dec 7, 9:00am

Sat Dec 7, 8:10am

Sat Dec 7, 8:00am

Sat Dec 7, 7:10am

Sat Dec 7, 7:00am

Sat Dec 7, 6:10am

Sat Dec 7, 6:00am

Sat Dec 7, 5:10am

Sat Dec 7, 5:00am

Sat Dec 7, 4:10am

Sat Dec 7, 4:00am

Sat Dec 7, 3:10am

Sat Dec 7, 3:00am

Sat Dec 7, 2:10am

Sat Dec 7, 2:01am

Sat Dec 7, 1:10am

Sat Dec 7, 1:00am

Sat Dec 7, 12:10am

Sat Dec 7, 12:01am

Fri Dec 6, 11:10pm

Fri Dec 6, 11:00pm

Fri Dec 6, 10:10pm

Fri Dec 6, 10:00pm

Fri Dec 6, 9:10pm

Fri Dec 6, 9:00pm

Fri Dec 6, 8:10pm

Fri Dec 6, 8:00pm

Fri Dec 6, 7:10pm

Fri Dec 6, 7:01pm

Fri Dec 6, 6:10pm

Fri Dec 6, 6:00pm

Fri Dec 6, 5:10pm

Fri Dec 6, 5:00pm

Fri Dec 6, 4:10pm

Fri Dec 6, 4:00pm

Fri Dec 6, 3:10pm

Fri Dec 6, 3:00pm

Fri Dec 6, 2:10pm

Fri Dec 6, 2:00pm

Fri Dec 6, 1:10pm

Fri Dec 6, 1:00pm

Fri Dec 6, 12:10pm

Fri Dec 6, 12:00pm

Fri Dec 6, 11:10am

Fri Dec 6, 11:00am

Fri Dec 6, 10:10am

Fri Dec 6, 10:00am

Fri Dec 6, 9:10am

Fri Dec 6, 9:00am

Fri Dec 6, 8:10am

Fri Dec 6, 8:00am

Fri Dec 6, 7:10am

Fri Dec 6, 7:00am

Fri Dec 6, 6:10am

Fri Dec 6, 6:01am

Fri Dec 6, 5:10am

Fri Dec 6, 5:00am

Fri Dec 6, 4:10am

Fri Dec 6, 4:00am

Fri Dec 6, 3:10am

Fri Dec 6, 3:00am

Fri Dec 6, 2:10am

Fri Dec 6, 2:00am

Fri Dec 6, 1:10am

Fri Dec 6, 1:00am

Fri Dec 6, 12:10am

Fri Dec 6, 12:00am

Thu Dec 5, 11:10pm

Thu Dec 5, 11:00pm

Thu Dec 5, 10:10pm

Thu Dec 5, 10:01pm

Thu Dec 5, 9:10pm

Thu Dec 5, 9:01pm

Thu Dec 5, 8:10pm

Thu Dec 5, 8:00pm

Thu Dec 5, 7:10pm

Thu Dec 5, 7:00pm

Thu Dec 5, 6:10pm

Thu Dec 5, 6:00pm

Thu Dec 5, 5:10pm

Thu Dec 5, 5:00pm

Thu Dec 5, 4:10pm

Meta data:

ID: 9abc5dc8-b72d-44fe-9b7f-c7f1385dd434
Link: https://api.weather.gov/products/9abc5dc8-b72d-44fe-9b7f-c7f1385dd434